N440WF KTEB-KFFA

Flight info

Callsign N440WF
Flight time 1h 28m
Altitude 28000
Route COL SIE CCV
Aircraft BE60/L-G/S

Departure

Time 2026-05-05 13:34
Airport Teterboro Airport (KTEB)

Arrival

Time 2026-05-05 15:02
Airport First Flight Airport (KFFA)
Time Latitude Longitude Altitude Speed Heading
2026-05-05 13:22 40.85524 -74.06373 10 ft 0 kts 126°
2026-05-05 13:28 40.85521 -74.06370 9 ft 4 kts 156°
2026-05-05 13:28 40.85441 -74.06369 9 ft 17 kts 215°
2026-05-05 13:29 40.85352 -74.06324 9 ft 20 kts 131°
2026-05-05 13:29 40.85244 -74.06412 10 ft 23 kts 225°
2026-05-05 13:29 40.85126 -74.06589 10 ft 28 kts 235°
2026-05-05 13:29 40.85165 -74.06752 10 ft 14 kts 224°
2026-05-05 13:30 40.85151 -74.06767 10 ft 0 kts 214°
2026-05-05 13:30 40.85150 -74.06768 10 ft 2 kts 210°
2026-05-05 13:30 40.85130 -74.06739 10 ft 6 kts 127°
2026-05-05 13:31 40.85119 -74.06721 10 ft 0 kts 130°
2026-05-05 13:31 40.85059 -74.06703 10 ft 22 kts 197°
2026-05-05 13:32 40.85004 -74.06697 10 ft 0 kts 132°
2026-05-05 13:32 40.84949 -74.06627 10 ft 12 kts 217°
2026-05-05 13:33 40.84944 -74.06634 10 ft 3 kts 231°
2026-05-05 13:33 40.84736 -74.06943 10 ft 81 kts 227°
2026-05-05 13:33 40.84265 -74.07606 88 ft 110 kts 223°
2026-05-05 13:33 40.83757 -74.08230 545 ft 110 kts 219°
2026-05-05 13:34 40.83195 -74.08872 1126 ft 101 kts 218°
2026-05-05 13:34 40.82617 -74.09515 1515 ft 117 kts 217°
2026-05-05 13:34 40.81838 -74.09922 1893 ft 130 kts 180°
2026-05-05 13:34 40.80954 -74.09544 2315 ft 140 kts 154°
2026-05-05 13:35 40.80131 -74.08814 2701 ft 148 kts 153°
2026-05-05 13:35 40.79225 -74.08176 3107 ft 147 kts 169°
2026-05-05 13:35 40.78235 -74.07852 3475 ft 146 kts 182°
2026-05-05 13:35 40.77219 -74.07763 3886 ft 146 kts 188°
2026-05-05 13:36 40.76202 -74.07813 4335 ft 145 kts 192°
2026-05-05 13:36 40.75194 -74.07941 4746 ft 146 kts 194°
2026-05-05 13:36 40.74202 -74.08097 5165 ft 143 kts 195°
2026-05-05 13:36 40.73220 -74.08268 5555 ft 143 kts 196°
2026-05-05 13:37 40.72235 -74.08444 5942 ft 142 kts 196°
2026-05-05 13:37 40.71249 -74.08625 6357 ft 143 kts 196°
2026-05-05 13:37 40.70255 -74.08812 6767 ft 144 kts 196°
2026-05-05 13:37 40.69270 -74.08993 7142 ft 145 kts 195°
2026-05-05 13:38 40.68266 -74.09177 7548 ft 146 kts 196°
2026-05-05 13:38 40.67260 -74.09362 7942 ft 147 kts 195°
2026-05-05 13:38 40.66242 -74.09551 8344 ft 148 kts 195°
2026-05-05 13:38 40.65214 -74.09742 8752 ft 150 kts 195°
2026-05-05 13:39 40.64179 -74.09936 9150 ft 151 kts 195°
2026-05-05 13:39 40.63154 -74.10124 9539 ft 150 kts 195°
2026-05-05 13:39 40.62111 -74.10314 9924 ft 151 kts 195°
2026-05-05 13:39 40.61063 -74.10507 10332 ft 152 kts 195°
2026-05-05 13:40 40.60017 -74.10697 10733 ft 152 kts 195°
2026-05-05 13:40 40.58978 -74.10886 11121 ft 152 kts 195°
2026-05-05 13:40 40.57920 -74.11079 11522 ft 153 kts 195°
2026-05-05 13:40 40.57203 -74.11212 11785 ft 155 kts 195°
2026-05-05 13:41 40.56142 -74.11407 12198 ft 156 kts 195°
2026-05-05 13:41 40.55064 -74.11606 12616 ft 156 kts 195°
2026-05-05 13:41 40.53979 -74.11806 13019 ft 157 kts 195°
2026-05-05 13:41 40.52891 -74.12005 13413 ft 159 kts 195°
2026-05-05 13:42 40.51805 -74.12204 13805 ft 160 kts 195°
2026-05-05 13:42 40.50697 -74.12407 14200 ft 161 kts 195°
2026-05-05 13:42 40.49578 -74.12612 14600 ft 162 kts 195°
2026-05-05 13:42 40.48455 -74.12818 15001 ft 163 kts 196°
2026-05-05 13:43 40.47342 -74.13021 15398 ft 164 kts 196°
2026-05-05 13:43 40.46211 -74.13229 15799 ft 165 kts 196°
2026-05-05 13:43 40.45070 -74.13436 16208 ft 166 kts 196°
2026-05-05 13:43 40.43924 -74.13647 16620 ft 166 kts 196°
2026-05-05 13:44 40.42774 -74.13857 17021 ft 167 kts 197°
2026-05-05 13:44 40.41618 -74.14068 17418 ft 168 kts 197°
2026-05-05 13:44 40.40467 -74.14277 17818 ft 168 kts 197°
2026-05-05 13:44 40.39301 -74.14490 18219 ft 169 kts 197°
2026-05-05 13:45 40.38129 -74.14702 18617 ft 170 kts 197°
2026-05-05 13:45 40.36954 -74.14920 19021 ft 171 kts 197°
2026-05-05 13:45 40.35770 -74.15135 19424 ft 172 kts 196°
2026-05-05 13:45 40.34583 -74.15351 19822 ft 172 kts 196°
2026-05-05 13:46 40.33413 -74.15564 20209 ft 172 kts 195°
2026-05-05 13:46 40.32229 -74.15778 20595 ft 171 kts 195°
2026-05-05 13:46 40.31063 -74.16066 20964 ft 168 kts 203°
2026-05-05 13:46 40.29990 -74.16632 21318 ft 165 kts 210°
2026-05-05 13:47 40.28944 -74.17219 21668 ft 165 kts 208°
2026-05-05 13:47 40.27876 -74.17783 22021 ft 165 kts 207°
2026-05-05 13:47 40.26802 -74.18345 22364 ft 166 kts 207°
2026-05-05 13:47 40.25730 -74.18907 22686 ft 166 kts 207°
2026-05-05 13:48 40.24660 -74.19472 23027 ft 166 kts 207°
2026-05-05 13:48 40.23590 -74.20039 23352 ft 165 kts 207°
2026-05-05 13:48 40.22536 -74.20601 23662 ft 166 kts 207°
2026-05-05 13:48 40.21462 -74.21173 23953 ft 167 kts 206°
2026-05-05 13:49 40.20383 -74.21749 24258 ft 167 kts 206°
2026-05-05 13:49 40.19301 -74.22326 24561 ft 168 kts 206°
2026-05-05 13:49 40.18231 -74.22897 24852 ft 168 kts 206°
2026-05-05 13:49 40.17148 -74.23476 25141 ft 168 kts 206°
2026-05-05 13:50 40.16064 -74.24054 25431 ft 168 kts 206°
2026-05-05 13:50 40.14978 -74.24634 25703 ft 168 kts 205°
2026-05-05 13:50 40.13894 -74.25213 25981 ft 168 kts 205°
2026-05-05 13:50 40.12808 -74.25792 26239 ft 168 kts 205°
2026-05-05 13:51 40.11738 -74.26363 26474 ft 164 kts 205°
2026-05-05 13:51 40.10690 -74.26921 26657 ft 161 kts 205°
2026-05-05 13:51 40.09637 -74.27483 26657 ft 169 kts 205°
2026-05-05 13:51 40.08529 -74.28077 26723 ft 173 kts 205°
2026-05-05 13:52 40.07408 -74.28676 26795 ft 176 kts 204°
2026-05-05 13:52 40.06264 -74.29288 26869 ft 179 kts 204°
2026-05-05 13:52 40.05104 -74.29907 26936 ft 180 kts 204°
2026-05-05 13:52 40.03950 -74.30522 27016 ft 181 kts 204°
2026-05-05 13:53 40.02777 -74.31147 27090 ft 182 kts 204°
2026-05-05 13:53 40.01596 -74.31774 27172 ft 183 kts 204°
2026-05-05 13:53 40.00416 -74.32400 27249 ft 183 kts 204°
2026-05-05 13:53 39.99250 -74.33019 27317 ft 183 kts 204°
2026-05-05 13:54 39.98066 -74.33649 27395 ft 183 kts 204°
2026-05-05 13:54 39.96883 -74.34275 27457 ft 183 kts 204°
2026-05-05 13:54 39.95700 -74.34903 27523 ft 183 kts 204°
2026-05-05 13:54 39.94519 -74.35530 27588 ft 183 kts 204°
2026-05-05 13:55 39.93360 -74.36145 27666 ft 181 kts 204°
2026-05-05 13:55 39.92193 -74.36764 27734 ft 180 kts 204°
2026-05-05 13:55 39.91028 -74.37382 27785 ft 180 kts 204°
2026-05-05 13:55 39.89861 -74.38000 27824 ft 181 kts 204°
2026-05-05 13:56 39.88711 -74.38609 27865 ft 181 kts 204°
2026-05-05 13:56 39.87542 -74.39227 27906 ft 180 kts 204°
2026-05-05 13:56 39.86379 -74.39843 27947 ft 180 kts 204°
2026-05-05 13:56 39.85222 -74.40455 27969 ft 181 kts 204°
2026-05-05 13:57 39.84045 -74.41080 27976 ft 183 kts 204°
2026-05-05 13:57 39.82860 -74.41708 27978 ft 184 kts 204°
2026-05-05 13:57 39.81668 -74.42339 27978 ft 186 kts 204°
2026-05-05 13:57 39.80465 -74.42973 27981 ft 187 kts 204°
2026-05-05 13:58 39.79253 -74.43612 27979 ft 188 kts 204°
2026-05-05 13:58 39.78034 -74.44259 27979 ft 189 kts 204°
2026-05-05 13:58 39.76811 -74.44908 27981 ft 190 kts 204°
2026-05-05 13:58 39.75593 -74.45550 27981 ft 191 kts 204°
2026-05-05 13:59 39.73107 -74.46860 27979 ft 193 kts 204°
2026-05-05 13:59 39.71863 -74.47517 27979 ft 193 kts 204°
2026-05-05 14:00 39.69378 -74.48826 27980 ft 194 kts 204°
2026-05-05 14:00 39.68129 -74.49484 27980 ft 194 kts 205°
2026-05-05 14:00 39.66872 -74.50145 27979 ft 194 kts 205°
2026-05-05 14:00 39.65618 -74.50806 27980 ft 195 kts 205°
2026-05-05 14:01 39.64326 -74.51484 27983 ft 203 kts 204°
2026-05-05 14:01 39.62984 -74.52180 27985 ft 212 kts 204°
2026-05-05 14:01 39.61620 -74.52908 27985 ft 218 kts 205°
2026-05-05 14:01 39.60195 -74.53674 27985 ft 224 kts 205°
2026-05-05 14:02 39.58730 -74.54456 27991 ft 230 kts 205°
2026-05-05 14:02 39.57235 -74.55247 27987 ft 235 kts 204°
2026-05-05 14:02 39.55704 -74.56047 27987 ft 239 kts 204°
2026-05-05 14:02 39.54167 -74.56848 27986 ft 242 kts 204°
2026-05-05 14:03 39.52595 -74.57666 27988 ft 245 kts 204°
2026-05-05 14:03 39.51000 -74.58498 27986 ft 247 kts 204°
2026-05-05 14:03 39.49395 -74.59336 27986 ft 249 kts 205°
2026-05-05 14:03 39.47805 -74.60166 27987 ft 250 kts 205°
2026-05-05 14:04 39.46177 -74.61016 27989 ft 252 kts 205°
2026-05-05 14:04 39.44545 -74.61867 27990 ft 253 kts 205°
2026-05-05 14:04 39.42913 -74.62720 27986 ft 253 kts 205°
2026-05-05 14:04 39.41271 -74.63577 27991 ft 254 kts 205°
2026-05-05 14:05 39.39624 -74.64438 27988 ft 255 kts 205°
2026-05-05 14:05 39.37991 -74.65289 27985 ft 256 kts 205°
2026-05-05 14:05 39.36340 -74.66151 27992 ft 256 kts 205°
2026-05-05 14:05 39.34680 -74.67017 27988 ft 256 kts 205°
2026-05-05 14:06 39.33024 -74.67879 27986 ft 257 kts 205°
2026-05-05 14:06 39.31364 -74.68742 27991 ft 257 kts 205°
2026-05-05 14:06 39.29722 -74.69596 27988 ft 257 kts 205°
2026-05-05 14:06 39.28053 -74.70464 27989 ft 258 kts 205°
2026-05-05 14:07 39.26379 -74.71332 27991 ft 258 kts 205°
2026-05-05 14:07 39.24734 -74.72187 27995 ft 258 kts 205°
2026-05-05 14:07 39.23063 -74.73054 27999 ft 258 kts 205°
2026-05-05 14:07 39.21393 -74.73920 27995 ft 258 kts 205°
2026-05-05 14:08 39.19722 -74.74786 28000 ft 258 kts 205°
2026-05-05 14:08 39.18070 -74.75643 28001 ft 258 kts 205°
2026-05-05 14:08 39.16398 -74.76510 27999 ft 258 kts 205°
2026-05-05 14:08 39.14721 -74.77379 27998 ft 259 kts 205°
2026-05-05 14:09 39.13051 -74.78243 27999 ft 259 kts 205°
2026-05-05 14:09 39.11396 -74.79098 28001 ft 258 kts 205°
2026-05-05 14:09 39.09740 -74.80001 28005 ft 257 kts 208°
2026-05-05 14:09 39.08142 -74.81031 28008 ft 256 kts 212°
2026-05-05 14:10 39.06575 -74.82136 28009 ft 256 kts 212°
2026-05-05 14:10 39.05004 -74.83245 28006 ft 256 kts 212°
2026-05-05 14:10 39.03455 -74.84336 28012 ft 257 kts 212°
2026-05-05 14:10 39.01889 -74.85439 28007 ft 257 kts 212°
2026-05-05 14:11 39.00316 -74.86546 28009 ft 257 kts 212°
2026-05-05 14:11 38.98738 -74.87655 28008 ft 257 kts 212°
2026-05-05 14:11 38.97185 -74.88747 28006 ft 257 kts 212°
2026-05-05 14:11 38.95606 -74.89855 28008 ft 257 kts 212°
2026-05-05 14:12 38.94034 -74.90956 28007 ft 257 kts 212°
2026-05-05 14:12 38.92451 -74.92065 28010 ft 257 kts 212°
2026-05-05 14:12 38.90901 -74.93150 28000 ft 257 kts 212°
2026-05-05 14:12 38.89327 -74.94252 28006 ft 257 kts 212°
2026-05-05 14:13 38.87748 -74.95354 28008 ft 257 kts 212°
2026-05-05 14:13 38.86191 -74.96445 28006 ft 257 kts 212°
2026-05-05 14:13 38.84614 -74.97547 28009 ft 257 kts 212°
2026-05-05 14:13 38.83037 -74.98647 28007 ft 257 kts 212°
2026-05-05 14:14 38.81464 -74.99745 28008 ft 257 kts 212°
2026-05-05 14:14 38.79914 -75.00827 28001 ft 257 kts 212°
2026-05-05 14:14 38.78346 -75.01922 27995 ft 257 kts 212°
2026-05-05 14:14 38.76771 -75.03019 27997 ft 257 kts 212°
2026-05-05 14:15 38.75201 -75.04112 27998 ft 257 kts 212°
2026-05-05 14:15 38.73625 -75.05209 27998 ft 257 kts 212°
2026-05-05 14:15 38.72079 -75.06286 28000 ft 256 kts 212°
2026-05-05 14:15 38.70502 -75.07382 28000 ft 256 kts 213°
2026-05-05 14:16 38.68932 -75.08473 28001 ft 256 kts 213°
2026-05-05 14:16 38.67361 -75.09565 28001 ft 256 kts 213°
2026-05-05 14:16 38.65816 -75.10638 28009 ft 256 kts 213°
2026-05-05 14:16 38.64250 -75.11725 28018 ft 256 kts 213°
2026-05-05 14:17 38.62681 -75.12813 28015 ft 256 kts 213°
2026-05-05 14:17 38.61108 -75.13904 28020 ft 256 kts 213°
2026-05-05 14:17 38.59542 -75.14990 28015 ft 256 kts 213°
2026-05-05 14:17 38.57976 -75.16075 28016 ft 256 kts 213°
2026-05-05 14:18 38.56428 -75.17147 28020 ft 256 kts 212°
2026-05-05 14:18 38.54857 -75.18235 28017 ft 256 kts 212°
2026-05-05 14:18 38.53285 -75.19323 28016 ft 256 kts 212°
2026-05-05 14:18 38.51717 -75.20407 28015 ft 256 kts 213°
2026-05-05 14:19 38.50144 -75.21493 28019 ft 256 kts 212°
2026-05-05 14:19 38.48572 -75.22579 28022 ft 256 kts 212°
2026-05-05 14:19 38.47021 -75.23650 28023 ft 256 kts 212°
2026-05-05 14:19 38.45446 -75.24737 28025 ft 256 kts 212°
2026-05-05 14:20 38.43875 -75.25819 28025 ft 256 kts 212°
2026-05-05 14:20 38.42308 -75.26900 28025 ft 256 kts 212°
2026-05-05 14:20 38.40739 -75.27982 28027 ft 256 kts 212°
2026-05-05 14:20 38.39194 -75.29046 28026 ft 256 kts 212°
2026-05-05 14:21 38.37628 -75.30123 28027 ft 256 kts 212°
2026-05-05 14:21 38.36055 -75.31205 28026 ft 256 kts 212°
2026-05-05 14:21 38.34486 -75.32285 28026 ft 256 kts 213°
2026-05-05 14:21 38.32914 -75.33365 28028 ft 257 kts 213°
2026-05-05 14:22 38.31341 -75.34446 28026 ft 257 kts 212°
2026-05-05 14:22 38.29762 -75.35528 28026 ft 257 kts 213°
2026-05-05 14:22 38.28189 -75.36608 28026 ft 257 kts 213°
2026-05-05 14:22 38.26611 -75.37691 28027 ft 257 kts 213°
2026-05-05 14:23 38.25057 -75.38756 28027 ft 256 kts 213°
2026-05-05 14:23 38.23485 -75.39835 28028 ft 256 kts 213°
2026-05-05 14:23 38.21917 -75.40911 28032 ft 256 kts 213°
2026-05-05 14:23 38.20349 -75.41984 28034 ft 256 kts 212°
2026-05-05 14:24 38.18777 -75.43059 28036 ft 256 kts 213°
2026-05-05 14:24 38.17218 -75.44124 28035 ft 256 kts 213°
2026-05-05 14:24 38.15650 -75.45197 28035 ft 256 kts 212°
2026-05-05 14:24 38.14077 -75.46269 28035 ft 256 kts 212°
2026-05-05 14:25 38.12502 -75.47345 28035 ft 256 kts 212°
2026-05-05 14:25 38.10931 -75.48417 28040 ft 256 kts 212°
2026-05-05 14:25 38.09381 -75.49475 28042 ft 256 kts 212°
2026-05-05 14:25 38.07815 -75.50544 28044 ft 256 kts 212°
2026-05-05 14:26 38.06241 -75.51617 28045 ft 256 kts 212°
2026-05-05 14:26 38.04677 -75.52682 28046 ft 256 kts 212°
2026-05-05 14:26 38.03103 -75.53755 28047 ft 256 kts 212°
2026-05-05 14:26 38.01537 -75.54822 28051 ft 255 kts 213°
2026-05-05 14:27 37.99971 -75.55886 28052 ft 255 kts 212°
2026-05-05 14:27 37.98402 -75.56952 28052 ft 255 kts 213°
2026-05-05 14:27 37.96833 -75.58018 28056 ft 255 kts 213°
2026-05-05 14:27 37.95283 -75.59069 28055 ft 255 kts 213°
2026-05-05 14:28 37.93716 -75.60133 28053 ft 256 kts 212°
2026-05-05 14:28 37.92140 -75.61201 28054 ft 256 kts 213°
2026-05-05 14:28 37.90572 -75.62265 28054 ft 256 kts 213°
2026-05-05 14:28 37.89018 -75.63319 28054 ft 256 kts 213°
2026-05-05 14:29 37.87447 -75.64385 28054 ft 256 kts 213°
2026-05-05 14:29 37.85873 -75.65452 28054 ft 255 kts 213°
2026-05-05 14:29 37.84306 -75.66514 28054 ft 255 kts 212°
2026-05-05 14:29 37.82738 -75.67574 28055 ft 255 kts 212°
2026-05-05 14:30 37.81699 -75.68276 28053 ft 255 kts 212°
2026-05-05 14:30 37.80128 -75.69337 28055 ft 255 kts 212°
2026-05-05 14:30 37.78051 -75.70739 28059 ft 255 kts 212°
2026-05-05 14:30 37.76996 -75.71452 28061 ft 255 kts 212°
2026-05-05 14:31 37.75444 -75.72499 28062 ft 255 kts 212°
2026-05-05 14:31 37.73875 -75.73557 28064 ft 255 kts 212°
2026-05-05 14:31 37.72309 -75.74613 28063 ft 255 kts 212°
2026-05-05 14:31 37.70736 -75.75674 28064 ft 255 kts 212°
2026-05-05 14:32 37.69164 -75.76734 28064 ft 255 kts 212°
2026-05-05 14:32 37.67614 -75.77777 28063 ft 255 kts 212°
2026-05-05 14:32 37.66043 -75.78835 28063 ft 255 kts 212°
2026-05-05 14:32 37.64468 -75.79894 28063 ft 255 kts 212°
2026-05-05 14:33 37.62892 -75.80954 28064 ft 256 kts 212°
2026-05-05 14:33 37.61340 -75.81999 28063 ft 256 kts 212°
2026-05-05 14:33 37.59764 -75.83055 28064 ft 256 kts 212°
2026-05-05 14:33 37.58188 -75.84113 28063 ft 256 kts 212°
2026-05-05 14:34 37.56614 -75.85169 28064 ft 256 kts 212°
2026-05-05 14:34 37.55056 -75.86214 28063 ft 256 kts 212°
2026-05-05 14:34 37.53485 -75.87268 28064 ft 256 kts 212°
2026-05-05 14:34 37.51906 -75.88327 28063 ft 256 kts 212°
2026-05-05 14:35 37.50331 -75.89384 28064 ft 256 kts 212°
2026-05-05 14:35 37.48779 -75.90422 28063 ft 256 kts 212°
2026-05-05 14:35 37.47204 -75.91476 28063 ft 256 kts 212°
2026-05-05 14:35 37.45632 -75.92528 28064 ft 256 kts 212°
2026-05-05 14:36 37.44056 -75.93581 28065 ft 256 kts 212°
2026-05-05 14:36 37.42478 -75.94635 28063 ft 256 kts 212°
2026-05-05 14:36 37.40900 -75.95688 28062 ft 256 kts 212°
2026-05-05 14:36 37.39327 -75.96738 28064 ft 256 kts 212°
2026-05-05 14:37 37.37768 -75.97778 28063 ft 256 kts 212°
2026-05-05 14:37 37.36192 -75.98820 28063 ft 257 kts 210°
2026-05-05 14:37 37.34461 -75.99456 28064 ft 265 kts 191°
2026-05-05 14:37 37.32605 -75.99204 28065 ft 274 kts 171°
2026-05-05 14:38 37.30750 -75.98620 28065 ft 273 kts 174°
2026-05-05 14:38 37.28886 -75.98164 28064 ft 272 kts 175°
2026-05-05 14:38 37.27043 -75.97747 28063 ft 272 kts 175°
2026-05-05 14:38 37.25179 -75.97322 28067 ft 272 kts 175°
2026-05-05 14:39 37.23315 -75.96886 28070 ft 273 kts 175°
2026-05-05 14:39 37.21446 -75.96440 28071 ft 273 kts 175°
2026-05-05 14:39 37.19580 -75.95986 28072 ft 273 kts 175°
2026-05-05 14:39 37.17715 -75.95528 28074 ft 273 kts 175°
2026-05-05 14:40 37.15846 -75.95066 28078 ft 273 kts 174°
2026-05-05 14:40 37.13980 -75.94604 28081 ft 273 kts 175°
2026-05-05 14:40 37.12109 -75.94142 28081 ft 274 kts 174°
2026-05-05 14:40 37.10262 -75.93684 28081 ft 274 kts 174°
2026-05-05 14:41 37.08394 -75.93222 28081 ft 274 kts 174°
2026-05-05 14:41 37.06522 -75.92757 28086 ft 273 kts 174°
2026-05-05 14:41 37.04656 -75.92295 28086 ft 273 kts 174°
2026-05-05 14:41 37.02791 -75.91832 28083 ft 271 kts 174°
2026-05-05 14:42 37.00944 -75.91373 28082 ft 269 kts 174°
2026-05-05 14:42 36.99133 -75.90923 28081 ft 267 kts 175°
2026-05-05 14:42 36.97318 -75.90473 28081 ft 265 kts 175°
2026-05-05 14:42 36.95511 -75.90026 28082 ft 263 kts 175°
2026-05-05 14:43 36.93713 -75.89581 28087 ft 262 kts 175°
2026-05-05 14:43 36.91941 -75.89143 28090 ft 261 kts 175°
2026-05-05 14:43 36.90154 -75.88702 28093 ft 261 kts 175°
2026-05-05 14:43 36.88373 -75.88263 28093 ft 260 kts 175°
2026-05-05 14:44 36.86592 -75.87825 28092 ft 259 kts 175°
2026-05-05 14:44 36.84823 -75.87390 28092 ft 259 kts 175°
2026-05-05 14:44 36.83076 -75.86960 28092 ft 259 kts 175°
2026-05-05 14:44 36.81291 -75.86521 28092 ft 258 kts 175°
2026-05-05 14:45 36.79546 -75.86091 28091 ft 258 kts 175°
2026-05-05 14:45 36.77780 -75.85656 28091 ft 259 kts 175°
2026-05-05 14:45 36.76013 -75.85220 28091 ft 258 kts 175°
2026-05-05 14:45 36.74249 -75.84788 28091 ft 258 kts 175°
2026-05-05 14:46 36.72486 -75.84356 28091 ft 258 kts 175°
2026-05-05 14:46 36.70724 -75.83925 28091 ft 257 kts 175°
2026-05-05 14:46 36.68966 -75.83494 28092 ft 257 kts 175°
2026-05-05 14:46 36.67229 -75.83069 28097 ft 257 kts 175°
2026-05-05 14:47 36.65469 -75.82637 28099 ft 257 kts 175°
2026-05-05 14:47 36.63709 -75.82206 28100 ft 257 kts 175°
2026-05-05 14:47 36.61947 -75.81775 28101 ft 257 kts 175°
2026-05-05 14:47 36.60196 -75.81347 28106 ft 257 kts 175°
2026-05-05 14:48 36.58454 -75.80921 28108 ft 257 kts 175°
2026-05-05 14:48 36.56696 -75.80492 28109 ft 257 kts 175°
2026-05-05 14:48 36.54934 -75.80060 28110 ft 257 kts 175°
2026-05-05 14:48 36.53199 -75.79637 28109 ft 257 kts 175°
2026-05-05 14:49 36.51440 -75.79208 28109 ft 257 kts 175°
2026-05-05 14:49 36.49678 -75.78778 28110 ft 257 kts 175°
2026-05-05 14:49 36.47923 -75.78349 28110 ft 257 kts 175°
2026-05-05 14:49 36.46169 -75.77921 28115 ft 257 kts 175°
2026-05-05 14:50 36.44435 -75.77498 28117 ft 257 kts 175°
2026-05-05 14:50 36.42678 -75.77070 28118 ft 257 kts 175°
2026-05-05 14:50 36.40954 -75.76648 27710 ft 253 kts 175°
2026-05-05 14:50 36.39201 -75.76226 27087 ft 260 kts 175°
2026-05-05 14:51 36.37407 -75.75793 26492 ft 264 kts 174°
2026-05-05 14:51 36.35585 -75.75352 25903 ft 269 kts 174°
2026-05-05 14:51 36.33730 -75.74904 25324 ft 273 kts 174°
2026-05-05 14:51 36.31867 -75.74452 24760 ft 277 kts 174°
2026-05-05 14:52 36.29963 -75.73990 24204 ft 280 kts 173°
2026-05-05 14:52 36.28032 -75.73521 23646 ft 283 kts 173°
2026-05-05 14:52 36.26091 -75.73050 23086 ft 285 kts 173°
2026-05-05 14:52 36.24127 -75.72573 22530 ft 287 kts 173°
2026-05-05 14:53 36.22189 -75.72104 21989 ft 288 kts 173°
2026-05-05 14:53 36.20213 -75.71627 21436 ft 289 kts 173°
2026-05-05 14:53 36.18228 -75.71148 20893 ft 289 kts 173°
2026-05-05 14:53 36.16252 -75.70670 20352 ft 289 kts 173°
2026-05-05 14:54 36.14281 -75.70192 19813 ft 287 kts 173°
2026-05-05 14:54 36.12325 -75.69719 19280 ft 286 kts 173°
2026-05-05 14:54 36.10382 -75.69249 18751 ft 283 kts 173°
2026-05-05 14:54 36.08477 -75.68790 18231 ft 281 kts 173°
2026-05-05 14:55 36.06566 -75.68330 17715 ft 277 kts 173°
2026-05-05 14:55 36.04677 -75.67873 17203 ft 275 kts 173°
2026-05-05 14:55 36.02812 -75.67408 16702 ft 273 kts 169°
2026-05-05 14:55 36.01110 -75.66364 16166 ft 277 kts 142°
2026-05-05 14:56 35.99976 -75.64492 15658 ft 278 kts 114°
2026-05-05 14:56 35.99636 -75.62182 15139 ft 273 kts 85°
2026-05-05 14:56 36.00167 -75.59981 14629 ft 266 kts 57°
2026-05-05 14:56 36.01424 -75.58386 14117 ft 256 kts 27°
2026-05-05 14:57 36.03074 -75.57758 13619 ft 245 kts 358°
2026-05-05 14:57 36.04671 -75.58199 13138 ft 235 kts 330°
2026-05-05 14:57 36.05977 -75.59386 12659 ft 231 kts 319°
2026-05-05 14:57 36.07283 -75.60528 12188 ft 230 kts 326°
2026-05-05 14:58 36.08668 -75.61510 11718 ft 228 kts 329°
2026-05-05 14:58 36.10070 -75.62427 11248 ft 227 kts 330°
2026-05-05 14:58 36.11433 -75.63348 10783 ft 225 kts 324°
2026-05-05 14:58 36.12559 -75.64666 10304 ft 222 kts 306°
2026-05-05 14:59 36.13317 -75.66362 9539 ft 231 kts 288°
2026-05-05 14:59 36.13606 -75.68325 8765 ft 234 kts 270°
2026-05-05 14:59 36.13364 -75.70316 7985 ft 234 kts 251°
2026-05-05 14:59 36.12626 -75.72101 7217 ft 233 kts 236°
2026-05-05 15:00 36.11553 -75.73581 6457 ft 232 kts 217°
2026-05-05 15:00 36.10588 -75.74152 5949 ft 233 kts 197°
2026-05-05 15:00 36.08480 -75.73913 4946 ft 235 kts 158°
2026-05-05 15:00 36.07163 -75.72757 4210 ft 230 kts 142°
2026-05-05 15:01 36.06009 -75.71427 3489 ft 222 kts 141°
2026-05-05 15:01 36.04899 -75.70127 2772 ft 216 kts 142°
2026-05-05 15:01 36.03834 -75.68899 2058 ft 203 kts 134°
2026-05-05 15:01 36.04266 -75.67827 803 ft 199 kts 312°
2026-05-05 15:02 36.03803 -75.68864 602 ft 113 kts 180°
2026-05-05 15:02 36.03489 -75.68334 139 ft 0 kts 176°
2026-05-05 15:02 36.02937 -75.67823 301 ft 192 kts 101°
2026-05-05 15:02 36.02911 -75.66565 565 ft 117 kts 143°
2026-05-05 15:03 36.02374 -75.66423 54 ft 0 kts 20°
2026-05-05 15:03 36.02932 -75.66310 531 ft 165 kts 352°
2026-05-05 15:03 36.03151 -75.67093 526 ft 106 kts 199°
2026-05-05 15:03 36.02511 -75.66777 81 ft 86 kts 143°
2026-05-05 15:04 36.02093 -75.66661 39 ft 77 kts 191°